Regional Weather Roundup
Issued by NWS Sterling, VA

Home | Current Version | Previous Version | Graphics & Text | Print | Product List | Glossary Off
Versions: 1 2 3 4 5 6 7 8 9 10 11 12 13 14 15 16 17 18 19 20 21 22 23 24 25 26 27 28

000
ASUS41 KLWX 251210
RWRLWX

REGIONAL WEATHER ROUNDUP
NATIONAL WEATHER SERVICE BALTIMORE MD/WASHINGTON DC
800 AM EDT SAT OCT 25 2014

Note: "FAIR" indicates few or no clouds below 12,000 feet
with no significant weather and/or obstructions to visibility.
 TC=TEMPERATURE CELSIUS

 * =Non NWS site. Station does not report precipitation (e.g. rain,
    snow, etc.), thunder, or fog.

DCZ001-MDZ009-015-VAZ040>042-051-053>054-251300-
WASHINGTON METRO

CITY           SKY/WX    TMP DP  RH WIND       PRES   REMARKS
WASHINGTON NAT CLEAR     50  41  71 SW3       29.97S
DULLES         CLEAR     43  39  86 CALM      29.96S
ANDREWS AFB    CLEAR     44  40  86 CALM      29.95S
FT BELVOIR     CLEAR     39  38  96 CALM      29.97S
QUANTICO       CLEAR     43  39  86 NW8       29.98S
COLLEGE PARK*  CLEAR     43  41  93 CALM      29.96R
LEESBURG*      CLEAR     50  41  71 CALM      29.97R
GAITHERSBURG*  CLEAR     45  39  81 CALM      29.99R

$$

MDZ006>007-011-014-251300-
BALTIMORE METRO

CITY           SKY/WX    TMP DP  RH WIND       PRES   REMARKS
BWI AIRPORT    PTCLDY    46  39  76 CALM      29.94S
MD SCIENCE CTR   N/A     51  38  60 MISG      29.95R
MARTIN STATE   CLEAR     46  43  87 CALM      29.96R
ANNAPOLIS      CLEAR     47  39  74 SW3       29.95R
FORT MEADE*    CLEAR     36  36 100 CALM      29.98S

$$

MDZ012-015-019>023-251300-
MARYLAND EASTERN SHORE

CITY           SKY/WX    TMP DP  RH WIND       PRES   REMARKS
OCEAN CITY     CLEAR     46  40  79 NW3       29.93S
SALISBURY      CLEAR     42  37  82 CALM      29.95R
BAY BRIDGE AP*   N/A     52  41  66 CALM      29.96R
CAMBRIDGE*     CLEAR     43  41  93 CALM      29.95R

$$

MDZ017>025-251300-
SOUTHERN MARYLAND

CITY           SKY/WX    TMP DP  RH WIND       PRES   REMARKS
PATUXENT RIVER CLEAR     45  39  79 W6        29.96S
ST INIGOES     CLEAR     48  38  68 CALM      29.96S
LEONARDTOWN*   CLEAR     37  36  93 W3        29.98S

$$

MDZ003>005-251300-
NORTH CENTRAL MARYLAND

CITY           SKY/WX    TMP DP  RH WIND       PRES   REMARKS
FREDERICK*     CLEAR     48  39  71 CALM      29.98S
HAGERSTOWN APT CLEAR     46  38  73 VRB5      29.96R
WESTMINSTER*   CLEAR     48  37  66 CALM      29.95R

$$

MDZ501>502-251300-
WESTERN MARYLAND

CITY           SKY/WX    TMP DP  RH WIND       PRES   REMARKS
OAKLAND*       MOCLDY    43  43 100 W9G16     29.98S
CUMBERLAND*    CLEAR     37  37 100 CALM      30.02S

$$

VAZ025>031-251300-
SHENANDOAH VALLEY

CITY           SKY/WX    TMP DP  RH WIND       PRES   REMARKS
WINCHESTER*    CLEAR     43  32  65 CALM      29.97S
FRONT ROYAL*   FAIR      43  36  75 S6        29.98R
LURAY*         FAIR      39  39 100 S5        30.01R
NEW MARKET*    FAIR      37  33  86 SW7       30.00R
STAUNTON*      CLEAR     32  30  92 CALM      30.03R
WAYNESBORO*    FAIR      32  30  92 CALM      30.00S

$$

WVZ021-048>050-054>055-251300-
EASTERN WEST VIRGINIA PANHANDLE

CITY           SKY/WX    TMP DP  RH WIND       PRES   REMARKS
MARTINSBURG    CLEAR     47  36  65 CALM      29.96S
PETERSBURG*    CLEAR     33  32  94 CALM      30.01S

$$

VAZ036>039-050-251300-
CENTRAL FOOTHILLS

CITY           SKY/WX    TMP DP  RH WIND       PRES   REMARKS
CHARLOTTESVILL CLEAR     47  33  58 W6        29.98S
CULPEPER*      CLEAR     36  34  93 CALM      29.98S
ORANGE*        CLEAR     34  34 100 CALM      29.98F
GORDONSVILLE*  FAIR      34  34  98 CALM      29.97S
WARRENTON*     FAIR      35  35 100 CALM      29.97S

$$

VAZ055>057-251300-
NORTH AND CENTRAL PIEDMONT

CITY           SKY/WX    TMP DP  RH WIND       PRES   REMARKS
FREDERICKSBRG* CLEAR     38  38 100 CALM      29.97S
STAFFORD*      CLEAR    N/A N/A N/A CALM      30.01S

$$

NCZ024-NYZ072-PAZ021-071-VAZ022-071-251300-
OTHER REGIONAL OBSERVATIONS

CITY           SKY/WX    TMP DP  RH WIND       PRES   REMARKS
NEW YORK CITY  CLEAR     51  36  56 W6        29.89R
PHILADELPHIA   PTCLDY    48  38  68 W6        29.93R
PITTSBURGH     MOCLDY    48  39  71 SW5       29.96S
ROANOKE        CLEAR     45  37  73 NW6       30.06R
RICHMOND       CLEAR     42  38  85 CALM      29.98S
RALEIGH        CLEAR     39  37  92 CALM      30.02R

$$

ANZ530>537-251300-
MARINE OBSERVATIONS

STATION/POSITION TIME  TEMP    WIND        PRES
                       AIR SEA DIR/SP/G
                 (UTC) (F)     (DEG/KT/KT) (MB)
THOMAS PT LIGHT  1200   53 61  290/  9/ 10 1015.3R
BALT KEY BRIDGE  1200   53     260/  5/  6 1013.8S
COVE POINT       1200   52     310/  8/ 10 1014.4R
LEWISETTA        1200   50 58  270/  5/  5 1014.4F
SOLOMONS ISLAND  1200      63                N/A
PINEY POINT      1200          340/  9/ 10   N/A

$$




USA.gov is the U.S. government's official web portal to all federal, state and local government web resources and services.